Regional Weather Roundup
Issued by NWS

Home | Current Version | Previous Version | Graphics & Text | Print | Product List | Glossary On
Versions: 1 2 3 4 5 6 7 8 9 10 11 12 13 14 15 16 17 18 19 20 21 22 23 24 25 26 27 28 29 30 31 32 33 34 35 36 37 38 39 40 41 42 43 44 45 46 47 48 49 50
000
ASUS45 KPSR 071210
RWRAZ

ARIZONA HOURLY REGIONAL WEATHER ROUNDUP
NATIONAL WEATHER SERVICE PHOENIX AZ
500 AM MST TUE JUL 07 2015

NOTE: FAIR INDICATES FEW OR NO CLOUDS BELOW 12,000 FEET WITH NO
SIGNIFICANT WEATHER AND/OR OBSTRUCTIONS TO VISIBILITY.

AZZ001>003-036-071300-
NORTHWEST ARIZONA

CITY           SKY/WX    TMP DP  RH WIND       PRES   REMARKS
BULLHEAD CITY  CLEAR     84  57  39 N7        29.84R
KINGMAN        PTCLDY    66  53  63 CALM      30.05R
6HR MIN TEMP:  65; 6HR MAX TEMP:  76;

$$

AZZ004>008-015-016-018-071300-
NORTH CENTRAL ARIZONA

CITY           SKY/WX    TMP DP  RH WIND       PRES   REMARKS
GRAND CANYON   PTCLDY    45  42  89 CALM      30.25S
6HR MIN TEMP:  44; 6HR MAX TEMP:  51;

WILLIAMS       CLEAR     50  48  93 S9        30.32S
PRESCOTT       CLEAR     60  54  80 S8        30.15S
6HR MIN TEMP:  60; 6HR MAX TEMP:  67;

FLAGSTAFF      CLEAR     48  46  93 CALM      30.28S
6HR MIN TEMP:  48; 6HR MAX TEMP:  56;

PAYSON         CLEAR     64  50  59 CALM      30.17R
PAGE           PTCLDY    67  56  67 CALM      30.09S
6HR MIN TEMP:  66; 6HR MAX TEMP:  71;

$$

AZZ009>014-017-071300-
NORTHEAST ARIZONA

CITY           SKY/WX    TMP DP  RH WIND       PRES   REMARKS
WINSLOW        CLEAR     61  53  75 CALM      30.15R
6HR MIN TEMP:  60; 6HR MAX TEMP:  69;

SAINT JOHNS    CLEAR     60  52  74 SE6       30.19R
6HR MIN TEMP:  60; 6HR MAX TEMP:  71;

WINDOW ROCK    CLEAR     51  48  89 CALM      30.25R
6HR MIN TEMP:  51; 6HR MAX TEMP:  61;

SHOW LOW       CLEAR     54  50  87 CALM      30.25R
$$

AZZ023-071300-
GREATER PHOENIX AREA

CITY           SKY/WX    TMP DP  RH WIND       PRES   REMARKS
PHOENIX        PTCLDY    86  65  49 E7        29.86R
6HR MIN TEMP:  86; 6HR MAX TEMP:  96;

BUCKEYE          N/A     81  59  47 CALM      29.88R
LUKE AFB       CLEAR     84  63  48 W1        29.86R
DEER VALLEY    CLEAR     82  59  45 CALM      29.88R
6HR MIN TEMP:  81; 6HR MAX TEMP:  91;

SCOTTSDALE     CLEAR     83  62  49 SE3       29.90R
6HR MIN TEMP:  83; 6HR MAX TEMP:  92;

MESA-GATEWAY   PTCLDY    79  66  65 E6        29.91R
$$

AZZ027-028-071300-
SOUTHWEST MARICOPA COUNTY AND PINAL COUNTY

CITY           SKY/WX    TMP DP  RH WIND       PRES   REMARKS
CASA GRANDE    CLEAR     79  64  61 CALM      29.90R
6HR MIN TEMP:  75; 6HR MAX TEMP:  86;

GILA BEND      FAIR      80  63  55 S6        29.85R
6HR MIN TEMP:  80; 6HR MAX TEMP:  87;

$$

AZZ503-504-507>509-071300-
SOUTHEAST ARIZONA

CITY           SKY/WX    TMP DP  RH WIND       PRES   REMARKS
TUCSON         PTCLDY    77  63  61 S5        30.01R
6HR MIN TEMP:  76; 6HR MAX TEMP:  82;

DAVIS-MONTHAN  PTCLDY    74  65  73 SE7       30.00R
6HR MIN TEMP:  74; 6HR MAX TEMP:  79;

NOGALES        CLEAR     68  63  84 CALM      30.10R
6HR MIN TEMP:  67; 6HR MAX TEMP:  72;

SIERRA VISTA   PTCLDY    67  62  83 VRB1      30.15R
6HR MIN TEMP:  65; 6HR MAX TEMP:  71;

DOUGLAS        CLOUDY    66  63  90 VRB3      30.11R
6HR MIN TEMP:  66; 6HR MAX TEMP:  70;

SAFFORD        CLEAR     77  61  57 NW9       29.99R
6HR MIN TEMP:  76; 6HR MAX TEMP:  83;

$$

AZZ020-021-025-026-031-071300-
SOUTHWEST ARIZONA

CITY           SKY/WX    TMP DP  RH WIND       PRES   REMARKS
YUMA           CLEAR     83  41  22 S3        29.80S
6HR MIN TEMP:  83; 6HR MAX TEMP:  91;

$$

CAZ031-033-041-043-047-048-061-071300-
SOUTHERN CALIFORNIA

CITY           SKY/WX    TMP DP  RH WIND       PRES   REMARKS
DOWNTOWN L.A.  CLOUDY    66  59  78 CALM      29.97S
6HR MIN TEMP:  64; 6HR MAX TEMP:  66;

L.A. AIRPORT   CLOUDY    64  60  87 W3        29.98S
6HR MIN TEMP:  64; 6HR MAX TEMP:  65;

SAN DIEGO      CLOUDY    66  59  78 VRB5      29.99S
6HR MIN TEMP:  65; 6HR MAX TEMP:  68;

BURBANK        CLOUDY    64  59  83 S3        29.98R
6HR MIN TEMP:  63; 6HR MAX TEMP:  64;

ONTARIO        CLOUDY    63  58  83 CALM      29.98S
6HR MIN TEMP:  63; 6HR MAX TEMP:  65;

RIVERSIDE        N/A    N/A N/A N/A MISG      29.99S
PALM SPRINGS   CLEAR     79  59  50 SE5       29.84R
6HR MIN TEMP:  79; 6HR MAX TEMP:  88;

EL CENTRO NAS  CLEAR     77  61  57 SE6       29.80R
6HR MIN TEMP:  77; 6HR MAX TEMP:  92;

IMPERIAL       CLEAR     81  64  56 SE7       29.78R
6HR MIN TEMP:  80; 6HR MAX TEMP:  91;

BLYTHE         CLEAR     86  50  28 S10       29.81R
6HR MIN TEMP:  84; 6HR MAX TEMP:  97;

NEEDLES        CLEAR     87  51  28 W5        29.84S
6HR MIN TEMP:  87; 6HR MAX TEMP:  92;

$$

NVZ020-UTZ003-071300-
SOUTHERN NEVADA-UTAH

CITY           SKY/WX    TMP DP  RH WIND       PRES   REMARKS
LAS VEGAS      MOCLDY    79  61  53 SW8       29.91R
6HR MIN TEMP:  78; 6HR MAX TEMP:  83;

SALT LAKE CITY MOCLDY    66  61  84 E6        30.06S
6HR MIN TEMP:  66; 6HR MAX TEMP:  74; 6HR PCP:  0.03;

$$

NMZ009-TXZ055-071300-
NEW MEXICO-WEST TEXAS

CITY           SKY/WX    TMP DP  RH WIND       PRES   REMARKS
ALBUQUERQUE    MOCLDY    63  59  87 NE14      30.22R
6HR MIN TEMP:  60; 6HR MAX TEMP:  69; 6HR PCP:  1.55;

EL PASO        PTCLDY    75  61  61 N6        30.07R
6HR MIN TEMP:  75; 6HR MAX TEMP:  88;

$$


........................KEY........................
SKY/WX - SKY CONDITION/WEATHER
TMP    - TEMPERATURE IN FAHRENHEIT
DP     - DEW POINT IN FAHRENHEIT
RH     - RELATIVE HUMIDITY IN PERCENT
WIND   - DIRECTION AND SPEED IN MILES PER HOUR (MPH)
VRB    - VARIABLE WIND DIRECTION
PRES   - MEAN SEA LEVEL PRESSURE IN INCHES OF MERCURY
         F - FALLING PRESSURE   R - RISING PRESSURE
         S - STEADY PRESSURE
VSB    - VISIBILITY IN MILES
HX     - HEAT INDEX IN FAHRENHEIT
WCI    - WIND CHILL INDEX IN FAHRENHEIT
TC     - TEMPERATURE IN CELSIUS WHICH IS ALSO KNOWN AS
         TEMPERATURE IN CENTIGRADE
AFB    - AIR FORCE BASE
         LUKE AFB IS LUKE AIR FORCE BASE
         DAVIS-MONTHAN IS DAVIS-MONTHAN AIR FORCE BASE
NAS    - NAVAL AIR STATION
         EL CENTRO NAS IS EL CENTRO NAVAL AIR STATION
N/A    - NOT AVAILABLE




USA.gov is the U.S. government's official web portal to all federal, state and local government web resources and services.